Location: Maccacari
(45.1333°N, 11.1333°E)
Time: 22:40:51
(UTC+00:00)

S-56A Canister/Altair - Pass Details

Date: 26 June 2021
Orbit: 631 x 2501 km, 38.9° (Epoch: 30 July)

Event Time Altitude Azimuth Distance (km) Brightness Sun altitude
Exits shadow 01:20:25 20° 171° (S) 1,615 8.7 -16.1°
Maximum altitude 01:21:08 21° 159° (SSE) 1,559 8.7 -16.0°
Drops below altitude 10° 01:24:30 10° 110° (ESE) 2,037 9.8 -15.7°
Sets 01:27:10 0° 93° (E) 2,915 10.9 -15.5°
